You are here:

home

Questo sito é stato creato esclusivamente per valorizzare il lavoro svolto dall' intero
155° Gruppo E.T.S. del' Aeronautica Militare e non ha nessun fine commerciale ne di lucro. 
Pertanto, l' utilizzo delle foto é consentito solo per uso PRIVATO.

 

 
In alto

LIMS - Piacenza, San Damiano

[source: ADDS]
METAR
LIMS 240855Z 00000KT 1000 R30//// R12/P1500 BR SCT010 BKN030 08/08 Q1021 RMK OVC VIS MIN 1000 WIND THR30 00000KT AMB =
TAF
In alto
WEB MASTER
Paolo "paolopaso" Pasotti
______________________________________
Last Update: 25/02/2011
_____________________________________________________________________________________________________________
© 2010 / 2011 - Tutti i diritti riservati
 
 
In alto